This is the latest recevied weather packets stored in our database for station/object PY5KT-13. If no packets are shown the sender has not sent any weather packets the latest 10 day(s).
| Time | Temp. | Humidity | Pressure | Rain* | Wind** | Luminosity | Snow |
|---|---|---|---|---|---|---|---|
| 1777829324 | 13.33° C | 86% | 1023.1 hPa | 0 mm | - | 119 W/m² | - |
| 1777829023 | 12.78° C | 87% | 1023.3 hPa | 0 mm | - | 97 W/m² | - |
| 1777828721 | 12.78° C | 87% | 1023.4 hPa | 0 mm | - | 108 W/m² | - |
| 1777828419 | 12.78° C | 86% | 1023.5 hPa | 0 mm | - | 96 W/m² | - |
| 1777828118 | 13.33° C | 88% | 1023.6 hPa | 0 mm | - | 110 W/m² | - |
| 1777827817 | 12.78° C | 91% | 1023.7 hPa | 0 mm | - | 106 W/m² | - |
| 1777827515 | 12.22° C | 93% | 1023.7 hPa | 0 mm | - | 99 W/m² | - |
| 1777827213 | 12.22° C | 94% | 1023.7 hPa | 0 mm | - | 67 W/m² | - |
| 1777826912 | 12.78° C | 94% | 1023.8 hPa | 0.51 mm | - | 67 W/m² | - |
| 1777826610 | 12.78° C | 94% | 1023.8 hPa | 0.51 mm | - | 74 W/m² | - |
| 1777826308 | 12.22° C | 94% | 1023.9 hPa | 0.51 mm | - | 68 W/m² | - |
| 1777826007 | 12.22° C | 94% | 1023.9 hPa | 0.51 mm | - | 63 W/m² | - |
| 1777825705 | 12.22° C | 94% | 1024 hPa | 0.51 mm | - | 65 W/m² | - |
| 1777825403 | 12.22° C | 93% | 1024 hPa | 0.51 mm | - | 75 W/m² | - |
| 1777825101 | 12.78° C | 92% | 1024.1 hPa | 0.51 mm | - | 62 W/m² | - |
| 1777824800 | 12.78° C | 90% | 1024.1 hPa | 0.51 mm | - | 70 W/m² | - |
| 1777824498 | 13.33° C | 88% | 1024.2 hPa | 0.51 mm | - | 79 W/m² | - |
| 1777824197 | 13.33° C | 87% | 1024.3 hPa | 0.51 mm | - | 109 W/m² | - |
| 1777823894 | 13.33° C | 87% | 1024.4 hPa | 0.51 mm | - | 138 W/m² | - |
| 1777823593 | 13.33° C | 88% | 1024.5 hPa | 0.51 mm | - | 111 W/m² | - |
| 1777823291 | 13.33° C | 89% | 1024.4 hPa | 0.51 mm | - | 126 W/m² | - |
| 1777822989 | 12.78° C | 91% | 1024.5 hPa | 0.51 mm | - | 129 W/m² | - |
| 1777822688 | 12.78° C | 91% | 1024.5 hPa | 0 mm | - | 89 W/m² | - |
| 1777822386 | 12.78° C | 90% | 1024.5 hPa | 0 mm | - | 91 W/m² | - |
| 1777822084 | 13.33° C | 89% | 1024.6 hPa | 0 mm | - | 108 W/m² | - |
* Rain latest hour (hover to see other rain measurements)
** Current wind speed in m/s (hover to see current wind gust speed)